Wind_Speed
5 5 5 5 6 6 6 6 6 6 6 6 6 5 5 5 5 4 4 3 2 3 2 2 3 3 1 2 4 5 6 7 9 11 12 12 11 14 20 21 21 22 23 22 22 21 20 18 17 17 17 17 17 17 17 17 16 15 13 13 13 13 13 13 14 14 14 13 14 14 13 12 12 11 10 10 10 9 9 8 7 6 5 4 4
6 5 5 6 7 7 7 6 7 6 6 7 6 5 5 6 6 5 4 3 3 4 3 3 5 5 3 4 5 5 6 7 9 10 11 12 12 13 18 21 22 23 24 24 24 22 21 20 19 19 19 19 19 18 17 17 16 16 16 15 14 14 14 13 13 14 13 14 15 15 14 13 13 12 12 11 11 10 9 8 7 6 6 5 5
7 6 6 7 7 7 7 7 8 7 6 7 6 5 5 5 6 5 4 4 4 4 4 4 6 7 6 6 7 6 7 7 8 9 10 11 12 12 17 21 23 24 25 26 26 24 23 22 21 21 21 21 20 19 18 17 16 16 17 18 17 15 15 14 14 13 13 14 14 14 14 14 14 14 13 13 12 11 10 9 8 8 7 7 7
7 7 8 8 8 8 8 8 8 7 6 7 6 5 4 4 5 5 5 5 5 5 4 5 6 6 6 6 7 7 7 8 8 9 10 10 11 13 15 19 22 24 25 26 26 26 25 24 23 22 22 22 21 20 19 17 16 17 18 19 19 18 17 16 15 14 14 14 14 14 13 14 14 14 14 13 13 12 11 10 10 10 10 10 10
7 7 9 9 9 8 9 9 7 5 6 6 5 4 5 5 5 4 5 6 6 6 6 5 6 6 6 6 8 8 8 9 8 8 9 10 11 12 13 16 19 22 24 25 26 26 26 25 25 24 23 23 21 21 19 18 19 19 19 20 19 19 19 18 18 16 16 15 15 14 14 14 14 14 14 14 13 13 12 11 12 13 13 13 12
7 8 9 10 9 8 8 7 5 5 6 5 3 4 5 6 6 5 5 6 7 7 7 6 7 7 7 8 9 9 8 9 8 8 9 9 10 11 12 14 16 19 21 23 24 25 25 26 26 25 24 23 22 22 20 21 22 22 21 21 20 20 20 20 20 19 18 17 17 16 16 16 15 15 15 15 15 15 14 14 14 15 15 15 15
9 9 9 9 9 8 7 6 5 5 7 5 3 5 5 5 6 6 6 7 7 7 7 7 7 8 8 8 8 8 8 8 8 9 9 9 10 11 12 13 14 16 18 21 23 24 25 26 26 26 25 24 24 24 23 24 25 24 24 23 22 22 21 21 21 21 20 19 19 19 18 18 18 17 17 17 17 17 16 16 16 17 17 17 17
11 11 10 8 8 8 6 5 5 5 6 6 4 4 4 5 5 5 6 7 7 8 7 7 7 8 8 8 9 9 9 9 9 10 10 10 10 10 12 13 14 15 16 18 20 23 25 26 27 27 27 26 26 27 27 27 27 27 26 25 25 24 23 23 22 22 22 21 21 20 20 20 21 20 20 20 19 19 19 18 18 18 19 19 19
11 12 11 9 8 8 7 6 6 5 6 6 5 4 4 5 5 5 7 7 8 8 7 7 8 9 9 9 10 10 10 9 9 9 9 10 11 11 11 12 13 14 16 16 17 19 22 25 27 28 29 28 28 29 29 29 29 29 28 27 27 26 25 25 24 23 23 23 23 22 22 22 22 22 22 22 21 21 21 21 21 20 20 20 20
11 11 11 10 9 8 8 8 7 6 6 7 6 6 5 5 6 7 7 7 8 8 7 7 8 9 9 9 10 10 11 10 9 9 9 10 11 12 12 12 13 14 15 16 16 16 18 22 25 28 30 30 30 29 30 30 30 30 29 29 29 28 28 27 26 25 25 25 24 24 24 24 24 24 24 24 24 23 23 23 23 22 22 22 22
10 10 11 10 9 9 9 8 8 7 6 7 7 7 7 6 7 7 6 6 7 6 6 7 7 8 8 9 10 11 12 11 11 10 10 10 11 12 12 12 13 14 14 15 16 16 16 18 22 25 28 31 31 31 30 30 30 30 30 30 29 29 29 29 28 27 27 27 26 26 26 25 25 26 26 26 25 25 25 25 24 23 23 24 23
11 10 10 9 8 8 8 7 7 6 7 8 8 8 7 5 5 5 5 4 5 4 5 6 7 7 8 9 10 11 12 12 12 11 11 10 11 12 13 13 14 14 14 14 15 16 16 18 19 21 23 27 30 32 32 31 31 30 31 31 30 30 30 29 29 28 29 29 28 28 28 27 27 27 27 27 27 27 27 27 26 25 25 25 24
12 10 9 8 8 7 6 6 6 6 7 8 7 7 5 4 3 3 3 3 3 2 3 4 6 6 6 8 10 11 13 12 12 12 11 10 10 12 13 13 14 14 14 15 15 15 16 17 18 19 20 20 24 29 32 32 33 32 31 31 31 31 31 30 29 29 29 30 30 30 29 29 29 29 29 28 28 29 29 28 28 28 27 26 26
10 9 9 8 7 6 6 6 6 6 6 6 6 7 6 4 4 3 2 3 2 2 2 3 4 4 5 5 6 9 11 11 12 12 12 10 10 11 12 13 13 14 14 15 15 15 15 16 17 18 19 18 20 23 27 30 32 34 33 33 32 32 32 32 31 30 30 30 30 31 31 31 31 31 31 30 30 30 30 30 31 30 30 29 28
8 8 8 8 7 6 6 6 6 5 3 4 5 6 5 3 3 3 2 2 2 2 3 3 3 4 5 4 3 5 6 8 10 12 11 10 10 11 12 13 13 13 14 14 15 16 16 16 17 17 18 18 19 20 22 25 28 31 33 34 34 34 33 33 32 32 31 31 31 31 32 32 32 33 32 32 32 32 31 31 31 31 31 31 30
8 8 8 8 8 7 7 6 5 3 2 2 3 4 4 3 2 1 1 2 2 1 2 3 4 4 3 3 2 2 2 4 6 7 8 9 10 11 12 12 12 13 14 14 15 16 16 17 17 18 18 18 18 19 20 21 23 27 29 31 33 34 34 34 34 33 32 32 32 32 32 33 33 34 34 33 33 32 32 31 31 31 32 32 32
8 8 8 9 8 7 6 5 4 3 2 2 1 2 3 2 1 3 2 1 1 1 1 2 3 3 3 3 2 1 1 2 4 3 5 7 9 11 12 12 11 12 14 15 17 17 16 17 17 17 17 18 18 19 20 20 21 23 26 29 31 32 33 34 34 34 34 34 34 34 34 34 34 34 34 35 35 34 34 33 33 32 32 33 33
8 8 8 8 8 6 5 4 4 3 3 3 2 2 2 1 1 3 2 2 2 2 1 2 2 2 4 4 3 2 2 1 2 2 4 6 8 9 11 11 11 12 14 15 18 18 16 16 17 17 17 18 18 19 20 20 21 21 23 26 29 31 32 33 34 35 35 35 35 35 35 35 34 34 34 35 35 35 35 35 35 35 34 34 34
7 7 8 8 7 5 5 5 5 5 4 3 2 2 1 1 1 2 3 2 3 4 2 0 1 2 3 3 4 5 5 5 3 2 3 5 8 10 10 10 10 11 12 13 16 17 16 17 17 18 18 19 19 19 20 21 22 23 23 25 27 29 30 32 33 34 35 35 36 36 36 36 36 35 35 35 35 35 36 36 36 36 36 36 35
6 8 9 8 6 5 6 6 6 4 3 3 2 2 1 1 1 2 2 2 3 5 5 4 2 2 2 2 3 4 5 6 6 6 4 3 5 7 8 9 11 11 11 12 13 14 15 16 17 18 18 20 21 21 21 21 21 22 24 26 28 29 30 31 32 33 34 35 35 36 36 36 36 36 36 36 36 35 35 35 35 35 35 35 34
7 9 8 7 6 6 7 7 5 3 3 2 2 2 1 1 2 2 3 3 4 4 5 6 5 3 3 3 3 4 5 5 6 6 6 5 4 4 6 8 9 11 11 12 13 13 14 15 17 18 19 20 21 22 23 23 22 22 24 26 28 30 31 32 32 32 33 34 35 35 35 36 36 36 36 36 36 36 35 35 35 35 35 34 33
8 8 7 6 6 6 7 6 4 2 2 2 2 3 2 2 3 3 4 4 5 5 5 6 6 5 5 4 5 6 5 5 6 7 7 7 6 4 6 7 6 9 11 13 13 13 13 14 17 19 20 20 19 19 22 23 23 24 25 25 26 28 30 31 32 32 32 33 34 34 35 35 35 36 36 36 36 36 36 36 36 35 35 35 33
7 7 6 6 7 7 6 4 3 2 2 3 3 4 4 4 5 5 4 4 6 6 6 6 6 6 7 6 7 8 6 6 6 7 7 7 6 6 6 6 6 8 10 11 12 12 13 14 16 17 18 19 19 19 20 21 22 23 24 23 24 26 28 29 31 31 31 32 32 33 34 35 35 35 35 34 34 35 35 35 35 35 34 34 33
6 6 7 7 7 6 5 4 4 3 3 3 4 4 6 6 6 6 5 5 6 6 6 6 6 6 7 7 8 8 8 7 7 7 7 8 7 7 7 7 7 8 9 9 11 12 13 14 15 16 16 16 17 18 19 20 21 22 23 23 24 25 27 29 30 30 30 30 31 32 33 34 34 34 33 33 33 33 33 33 33 33 32 32 32
5 5 6 7 6 5 4 5 4 3 3 3 3 4 5 6 6 7 6 5 6 6 6 7 6 7 7 7 8 8 8 7 7 8 8 8 7 7 9 9 8 9 10 10 11 11 12 14 14 14 14 14 14 16 16 16 18 20 21 21 23 25 26 28 29 29 28 27 28 28 30 31 31 31 31 30 31 32 31 32 32 32 30 29 30
3 3 4 4 4 4 4 4 4 3 3 3 3 3 4 6 6 7 7 6 6 7 7 7 7 7 8 8 8 8 8 7 7 8 9 8 9 8 8 9 10 10 10 10 11 10 11 12 13 12 12 12 13 13 13 13 14 16 17 18 20 22 24 26 27 27 26 26 26 26 27 27 28 28 28 28 30 31 30 29 29 28 27 27 27
3 3 3 2 2 1 2 2 1 2 2 2 4 3 3 6 6 6 6 5 6 7 7 7 7 7 8 8 9 9 9 8 8 8 8 8 9 10 8 7 8 9 9 9 10 11 11 12 12 12 12 12 12 11 11 12 13 13 14 14 16 18 20 22 23 23 24 24 24 25 25 26 26 26 25 27 29 29 29 28 27 26 26 26 28
2 3 2 1 0 0 1 1 0 2 2 2 4 4 4 6 6 5 6 5 5 7 7 7 6 6 7 7 8 9 9 8 9 9 8 8 9 10 9 8 7 7 7 7 8 9 11 11 11 11 12 11 11 10 11 13 14 13 13 14 15 16 17 19 19 19 20 21 21 22 23 24 24 24 24 26 26 26 26 26 26 26 26 27 29
2 2 2 1 1 1 2 1 1 2 3 3 4 4 5 7 6 5 7 6 6 7 7 7 7 7 8 7 8 9 8 8 9 9 8 8 9 10 10 10 9 7 7 7 7 8 10 11 11 10 11 11 10 12 13 14 14 13 13 15 15 16 17 18 19 19 19 19 19 19 20 21 21 21 22 23 23 23 23 23 24 26 27 29 30
2 2 1 1 0 1 3 3 2 3 4 4 5 5 6 8 7 7 8 6 6 8 7 8 8 8 9 9 10 10 10 9 9 9 9 9 11 11 11 11 10 9 8 7 8 10 11 12 11 11 11 12 12 13 14 15 15 14 14 16 16 16 17 18 19 20 21 21 21 20 19 19 19 18 18 19 21 21 21 22 24 25 27 28 30
3 1 1 1 2 2 2 3 3 4 5 5 6 7 8 9 9 9 7 5 6 9 9 9 9 9 9 10 11 11 11 10 10 10 10 11 11 11 11 12 11 11 11 10 9 11 13 13 13 13 13 14 14 15 16 16 16 15 14 16 17 17 17 18 20 22 23 21 21 20 20 19 18 16 16 18 19 19 20 22 23 23 24 25 27
2 1 1 2 3 4 4 4 4 5 6 7 8 9 9 9 9 10 9 7 8 9 10 10 9 10 11 11 12 12 12 12 12 12 13 12 12 12 12 12 12 12 12 12 10 11 15 16 16 16 15 15 15 16 16 17 16 16 16 17 17 17 17 18 19 19 19 18 17 18 18 17 17 16 16 17 17 17 19 21 21 22 23 23 25
1 1 2 2 2 3 4 5 6 7 7 9 10 10 10 9 9 10 10 9 9 10 10 10 10 10 11 11 12 13 13 13 14 14 14 14 13 14 13 13 14 13 12 12 11 12 15 17 16 17 16 16 16 16 17 17 17 17 17 17 17 17 18 18 17 17 16 15 15 15 15 15 15 14 15 16 15 16 18 19 20 20 20 21 23
1 2 3 3 3 3 5 6 7 8 8 8 9 9 9 10 10 10 10 9 10 10 11 10 10 11 11 11 13 13 13 13 14 15 15 15 15 15 15 14 15 16 14 14 13 13 15 17 17 17 17 17 17 17 16 17 16 16 17 18 18 18 18 18 18 17 17 16 15 14 14 14 14 14 15 15 16 16 17 18 19 19 19 20 22
2 2 3 4 4 5 6 6 7 7 8 8 8 8 9 10 10 10 10 11 11 11 11 11 11 11 11 12 13 13 13 13 13 14 15 15 15 15 16 16 16 17 17 16 14 14 16 18 18 18 17 16 17 17 17 17 17 17 18 18 18 18 18 18 19 18 18 18 15 13 13 13 14 15 16 16 17 18 18 19 19 19 20 20 21
2 2 3 4 5 5 6 6 6 7 7 8 8 9 9 9 10 10 10 11 11 11 12 12 12 11 11 12 13 12 13 13 13 14 15 15 15 16 16 16 16 17 18 17 15 14 16 18 19 19 18 17 17 18 18 18 18 18 18 18 18 18 19 19 19 19 18 17 14 14 16 18 17 16 16 17 17 18 19 20 20 21 21 21 21
3 4 3 3 4 5 6 6 6 7 8 8 8 8 9 9 9 10 10 10 11 12 12 12 12 12 12 13 13 13 13 13 14 14 15 15 16 16 17 17 17 18 17 17 17 16 17 18 19 19 19 19 18 17 17 18 18 18 18 18 18 18 18 18 18 18 18 18 17 19 20 19 17 15 16 17 17 17 18 19 20 21 21 22 21
3 3 3 3 5 6 7 7 7 7 7 7 8 8 8 9 9 10 10 11 11 12 12 12 12 12 13 13 13 13 13 14 14 14 14 15 16 16 17 17 17 18 18 18 18 18 19 19 19 19 20 19 18 17 16 16 17 17 17 17 17 17 17 18 18 18 17 17 18 18 17 16 15 13 13 14 17 18 19 19 21 22 22 22 22
3 3 3 4 5 7 7 7 7 6 6 7 7 7 8 9 9 10 11 11 12 12 12 12 13 13 13 13 14 14 14 14 14 14 14 15 15 16 16 17 17 17 18 18 18 19 19 19 19 19 19 19 18 18 17 16 16 17 17 17 17 16 16 17 17 17 16 15 16 17 17 18 18 17 16 18 21 21 21 21 21 22 22 23 23
3 3 4 5 6 7 7 6 6 6 6 6 6 7 8 9 9 10 11 11 12 12 12 12 12 12 12 13 13 13 13 12 12 13 14 14 15 16 16 16 17 17 18 18 18 18 19 19 19 19 19 19 18 18 17 16 16 16 15 15 16 16 16 16 16 16 16 16 16 16 17 18 19 19 19 19 20 21 22 22 23 23 23 22 22
2 3 5 6 6 6 6 6 6 5 5 5 7 8 9 9 10 11 11 11 11 12 12 12 12 12 12 12 13 12 12 13 13 13 13 13 14 16 16 16 17 18 18 18 18 18 19 19 19 19 19 18 18 17 17 16 16 16 16 16 16 16 16 17 17 16 15 15 16 16 15 15 16 17 17 17 16 17 18 20 22 23 23 21 20
2 4 6 6 5 5 5 5 5 5 5 5 7 9 9 9 10 11 11 12 12 12 13 13 13 13 13 13 13 13 13 13 13 13 13 13 13 14 15 16 17 17 18 19 19 19 20 19 19 19 18 17 17 18 17 17 17 18 18 18 18 17 16 16 15 15 14 14 15 15 14 14 14 15 15 15 15 15 16 17 18 19 18 17 17
3 5 7 5 5 5 4 4 5 6 6 5 8 10 9 10 11 12 13 13 12 13 13 14 14 14 14 14 14 14 13 13 13 13 13 14 14 14 15 16 16 17 18 19 19 19 20 20 20 20 19 19 19 19 18 18 18 19 19 18 17 16 15 13 12 13 13 12 13 14 14 13 13 14 14 14 14 15 15 15 16 16 16 16 16
4 6 6 4 4 4 4 5 6 7 7 7 9 11 10 11 12 12 14 13 12 13 13 14 14 14 14 14 14 14 14 13 13 14 15 15 14 14 15 16 18 18 19 20 20 20 20 20 20 20 19 20 20 19 19 18 18 18 18 18 17 16 15 14 14 14 13 11 12 14 15 13 12 13 15 15 14 15 15 15 17 18 18 18 19
6 6 5 4 4 4 5 7 8 9 10 10 11 12 12 12 13 13 14 13 12 13 13 14 14 14 14 14 14 14 14 14 14 15 15 16 16 16 17 18 18 19 19 21 22 22 22 22 22 22 21 20 20 20 19 17 17 18 18 18 18 16 16 16 16 15 13 11 12 14 16 15 14 14 16 15 15 15 15 15 16 18 19 19 19
6 5 4 4 4 5 7 8 9 11 12 11 11 12 12 12 12 13 14 13 12 13 14 14 15 15 15 15 15 15 15 15 15 16 16 18 19 20 21 21 21 21 20 21 22 22 23 23 23 23 22 21 21 20 18 16 16 17 18 19 18 17 18 18 16 15 14 13 13 14 16 16 16 16 17 16 16 16 16 16 17 17 18 19 18
4 4 4 4 5 6 8 9 11 12 12 10 10 11 11 11 13 14 13 13 13 14 15 15 15 15 16 16 16 16 17 17 17 18 19 20 20 22 24 25 25 24 23 23 22 22 22 23 23 22 21 21 20 18 17 17 17 17 17 19 19 18 19 19 19 18 17 17 16 15 15 16 16 16 17 17 17 18 17 17 18 19 20 21 20
3 4 4 5 6 8 9 10 11 12 11 10 10 11 12 13 14 15 14 14 15 15 16 16 17 17 17 17 17 18 19 20 20 20 21 21 21 22 25 27 27 27 26 26 24 24 25 25 26 25 24 23 23 22 22 22 22 20 19 21 22 21 20 19 19 19 18 18 17 16 16 17 17 17 18 17 17 18 18 17 18 18 20 21 21
3 4 5 7 8 9 9 10 10 11 10 9 10 13 14 15 16 15 14 15 16 16 17 18 18 18 18 19 20 21 22 24 23 22 22 21 21 23 26 27 27 28 27 25 24 24 24 24 26 26 25 25 25 25 24 24 23 21 19 21 22 21 19 16 15 18 19 19 17 16 16 17 17 17 18 18 18 18 18 18 18 18 19 20 21
4 4 6 8 8 8 8 8 9 10 10 9 10 13 15 15 16 15 14 16 17 18 19 19 19 19 20 21 21 22 24 25 23 21 21 20 21 23 25 24 24 25 24 22 22 22 22 22 23 23 24 24 23 22 23 23 22 20 20 22 22 21 20 17 16 18 20 20 19 16 16 18 17 17 18 18 18 19 19 19 19 19 19 20 21
5 6 7 8 8 8 8 8 9 9 9 9 10 13 14 15 16 16 14 16 18 18 19 19 20 21 21 22 22 21 21 21 20 20 22 21 21 23 24 23 23 23 22 20 19 19 19 21 22 21 21 21 20 20 22 22 21 21 23 25 23 22 21 21 20 18 15 16 18 17 16 18 18 17 17 15 13 15 16 18 18 18 18 18 19
Wind_Direction
275 279 287 290 293 294 294 301 307 310 314 308 299 288 264 245 245 248 252 258 249 236 223 242 249 222 194 207 202 203 202 189 183 184 189 198 205 208 204 201 201 205 208 208 210 214 213 213 212 212 214 213 211 206 204 205 205 208 210 212 213 213 215 214 211 210 210 211 214 215 216 223 222 220 223 228 229 230 231 234 237 244 246 242 242
279 283 287 288 291 293 295 300 302 306 316 313 303 287 262 232 227 238 240 247 251 231 214 239 251 229 209 223 214 209 214 204 193 188 187 192 196 205 205 202 203 206 209 212 215 216 217 218 216 214 212 212 214 212 212 210 208 210 213 216 217 218 219 221 222 222 221 221 221 220 218 222 225 225 226 229 232 232 234 236 237 246 248 245 246
283 287 287 288 289 291 296 299 302 311 318 316 309 287 261 234 224 231 231 232 234 229 222 228 237 234 232 222 204 206 218 212 205 196 189 192 191 198 204 202 204 206 208 212 217 218 220 221 219 217 215 213 213 212 213 214 214 216 217 218 218 221 222 223 226 228 230 232 233 231 226 224 224 226 227 229 231 233 237 242 246 250 249 248 250
287 294 295 293 292 292 296 297 302 310 312 313 313 290 259 238 222 221 228 228 222 222 229 231 228 229 237 228 204 207 219 212 211 206 196 194 192 196 202 202 205 208 208 212 216 218 221 222 221 219 216 215 215 212 210 214 221 222 223 222 219 220 223 226 229 229 231 234 237 239 238 235 232 232 234 234 236 239 243 248 249 248 246 247 250
293 299 299 295 293 293 294 296 301 300 298 305 308 284 263 245 224 218 233 234 227 222 224 228 228 223 224 227 215 212 217 210 206 211 207 201 197 200 202 200 204 208 210 212 215 218 220 221 221 220 218 216 217 215 211 214 221 222 225 227 224 222 224 226 229 231 232 233 234 237 239 239 240 242 244 247 248 248 248 247 246 246 246 248 251
296 300 301 302 299 295 290 288 289 287 289 295 287 270 269 258 246 245 243 240 241 237 232 228 227 225 221 222 221 215 215 214 207 208 212 209 204 202 201 198 201 206 210 214 216 218 220 221 221 222 221 219 219 219 216 218 221 222 224 227 227 225 226 227 227 230 233 234 235 235 236 237 239 242 245 248 251 253 252 248 247 247 248 251 254
292 295 301 307 302 292 285 276 277 289 294 292 272 262 266 263 258 257 253 248 250 250 247 241 233 230 227 225 224 218 213 215 212 210 212 214 212 207 204 201 200 201 206 212 216 219 220 221 222 222 221 221 222 221 221 222 222 223 224 226 228 227 228 228 228 229 231 234 236 237 239 239 240 241 242 245 247 250 251 249 249 251 252 254 257
293 297 302 305 300 291 282 278 284 299 301 297 279 266 267 265 259 259 267 263 255 256 257 253 247 239 233 228 225 221 217 215 215 217 213 212 216 213 210 207 204 203 203 206 212 217 220 220 220 221 221 222 223 223 224 225 225 225 225 226 227 228 229 230 230 231 231 233 235 237 240 242 243 243 243 245 247 248 249 248 249 251 253 256 258
299 299 301 301 298 292 286 287 297 305 302 294 284 277 274 271 264 264 274 273 266 265 260 256 253 245 235 229 226 223 221 217 215 219 216 214 217 217 216 214 210 209 207 207 207 213 221 222 220 220 220 221 222 224 225 227 228 228 228 228 228 229 230 231 232 233 233 234 235 236 238 241 244 245 245 246 247 248 249 249 250 250 251 254 256
303 298 300 301 294 288 287 291 299 304 298 291 285 280 278 277 276 273 272 271 270 269 260 257 258 248 235 227 225 223 221 219 214 214 217 218 218 218 221 219 217 216 214 214 211 211 217 221 222 221 220 221 221 223 225 227 229 229 229 229 229 230 230 232 233 234 235 236 237 237 238 239 242 244 246 247 247 248 250 250 250 250 251 252 254
299 295 299 297 288 283 284 289 296 302 298 292 285 282 285 283 278 277 274 266 261 262 260 257 256 249 239 231 226 224 224 222 215 212 215 219 218 219 221 221 220 221 220 219 218 215 213 215 219 220 221 221 221 222 225 226 227 229 229 230 230 231 231 233 234 235 236 237 239 240 240 240 242 244 246 246 247 248 250 251 251 251 251 252 254
289 288 290 285 280 279 281 288 294 298 295 292 288 287 289 285 280 277 274 263 250 252 259 253 249 247 243 239 232 226 225 224 220 214 213 216 217 220 221 221 220 220 221 221 221 221 217 216 217 217 218 222 224 225 226 227 228 228 229 230 230 231 232 233 235 236 237 239 240 241 242 243 244 245 247 248 248 249 251 252 252 252 252 252 254
280 276 273 270 272 274 280 284 285 286 286 289 291 288 279 272 284 278 263 261 250 237 242 240 241 239 238 236 233 230 226 222 222 219 216 215 217 220 220 221 220 219 220 222 223 224 222 222 220 218 218 220 224 227 228 229 230 230 230 230 231 231 232 233 234 236 238 240 241 242 243 244 245 246 248 250 250 251 252 252 253 254 254 254 255
273 265 260 263 263 264 271 272 275 278 278 289 293 285 277 270 272 265 252 263 253 222 221 225 239 247 244 234 229 233 227 221 223 223 220 217 217 220 220 221 222 220 220 220 223 225 225 225 224 224 223 220 221 226 229 230 231 232 232 232 232 232 232 232 233 235 237 240 242 243 245 246 248 248 249 251 252 253 253 254 255 255 256 256 256
269 260 259 265 260 258 265 268 274 272 275 300 295 284 282 270 255 251 248 256 239 225 228 226 252 265 253 240 218 220 216 211 219 221 219 218 217 220 223 223 223 222 224 224 223 224 225 226 227 227 227 225 224 226 228 228 230 233 233 233 234 234 234 234 234 234 236 239 241 243 245 247 249 250 251 253 254 255 256 257 257 256 256 256 257
259 253 256 263 261 261 262 264 265 256 256 294 290 287 283 268 266 290 283 267 246 223 225 228 252 265 264 278 263 230 208 183 199 211 213 216 221 222 225 226 223 221 224 227 227 226 227 227 228 228 228 228 228 227 228 228 229 233 235 235 234 234 235 235 235 236 237 239 240 242 244 246 248 250 251 253 254 256 257 258 258 258 257 257 257
253 254 256 257 260 258 251 247 246 242 224 223 253 273 268 270 28 48 37 320 304 239 211 227 254 262 269 298 292 266 6 142 175 205 213 217 223 223 225 225 221 220 223 225 226 227 228 229 230 230 228 229 229 229 230 230 229 230 233 236 235 234 235 236 236 237 239 240 241 243 244 246 247 249 250 252 253 255 256 257 258 259 259 259 259
255 256 254 252 258 253 236 229 225 228 215 199 215 236 249 287 28 34 33 6 334 286 215 184 217 250 252 261 249 239 303 278 211 221 213 220 231 225 222 224 221 222 226 227 226 227 228 229 231 232 229 230 232 233 233 233 231 229 229 233 236 236 236 237 238 239 240 242 243 244 245 246 247 248 250 251 252 254 255 257 257 259 260 260 260
260 250 248 248 253 237 212 210 209 212 204 194 220 245 267 349 358 350 351 330 313 310 314 182 193 239 245 250 248 245 262 267 261 260 220 224 235 226 219 221 224 228 231 232 229 226 227 228 230 231 231 232 233 234 235 235 234 233 232 232 236 239 239 238 239 240 241 242 243 244 245 246 246 248 249 250 252 253 255 256 257 258 259 260 260
253 251 248 239 235 217 196 195 196 196 198 212 259 288 317 353 346 330 319 295 298 313 321 315 290 255 225 235 249 247 247 242 247 263 264 251 236 227 228 231 234 236 234 234 232 228 227 227 228 229 230 232 232 232 234 235 236 235 235 234 235 238 241 242 242 242 243 244 244 245 245 246 247 248 249 250 252 253 254 255 257 258 259 259 260
234 245 244 223 213 208 197 192 187 191 216 245 280 294 315 325 305 301 301 293 292 302 307 308 311 296 256 252 258 259 255 241 240 248 260 269 252 223 228 237 246 248 240 236 233 229 229 229 229 228 228 231 233 234 235 236 237 237 237 238 238 239 241 244 246 247 247 246 246 246 247 247 248 249 250 251 252 253 254 256 257 258 259 260 260
213 218 223 213 205 204 199 195 189 204 247 277 272 274 294 299 301 312 312 306 300 297 300 304 309 304 289 274 263 261 256 248 245 242 249 262 267 249 219 218 245 253 241 238 237 231 230 231 235 235 231 232 235 235 236 238 237 238 240 241 242 244 245 247 249 250 250 249 249 249 249 250 251 251 252 253 254 255 256 257 258 259 260 261 261
202 200 205 202 200 201 199 203 219 235 264 289 288 299 309 308 314 315 304 309 311 306 303 299 297 292 284 272 267 269 266 262 259 254 255 259 268 272 243 224 246 250 235 231 233 231 231 232 237 241 236 233 235 234 237 242 242 242 243 242 242 245 248 251 253 252 251 251 252 252 252 253 254 255 255 255 255 256 258 259 260 261 261 263 264
202 195 195 197 198 202 205 216 232 244 270 296 313 321 318 316 318 310 303 314 315 309 304 300 298 291 282 275 273 276 278 278 275 273 275 278 282 285 278 268 264 261 249 232 227 230 232 231 232 237 236 234 237 238 239 243 245 246 246 246 244 244 246 250 254 254 253 252 253 254 254 254 255 256 256 257 257 258 259 259 260 261 262 263 264
203 193 194 197 199 207 220 232 238 248 266 291 314 319 319 319 317 312 313 319 315 311 308 305 305 302 297 294 286 281 280 280 284 285 281 282 283 283 286 286 278 273 268 253 245 243 238 235 235 237 237 235 239 242 240 242 246 249 250 250 250 249 249 251 254 257 257 255 254 254 254 254 254 255 255 255 256 257 257 258 260 261 261 261 262
175 164 177 194 206 211 233 249 252 253 260 280 304 318 326 318 315 316 317 322 320 313 308 306 306 304 303 303 297 290 285 282 283 282 280 282 279 278 284 284 280 280 277 268 263 258 249 245 244 242 240 239 242 242 242 245 247 250 254 253 253 254 253 255 257 259 259 258 257 256 255 256 256 255 256 254 253 254 255 257 259 261 261 260 259
122 133 151 190 215 202 237 262 273 266 275 305 306 312 323 311 312 316 313 320 322 313 311 308 305 304 302 302 300 295 290 287 285 282 284 286 282 286 292 287 281 282 279 276 271 264 261 258 252 246 244 247 250 248 246 249 249 254 260 258 255 256 255 255 258 259 260 259 258 258 257 257 257 258 258 257 256 257 256 256 257 257 258 257 255
137 147 149 167 173 220 254 261 324 287 291 299 292 298 308 302 303 303 300 307 313 312 313 307 303 304 299 296 296 295 294 294 292 288 286 285 284 286 285 279 279 280 279 279 274 268 266 263 258 253 251 253 257 256 255 257 258 257 259 256 255 258 258 258 260 259 259 259 259 258 258 257 257 257 258 258 259 259 258 257 256 255 255 254 253
166 144 136 114 60 321 303 305 283 279 281 276 282 291 295 297 300 295 294 301 304 301 302 302 304 303 299 298 299 297 294 289 287 287 285 282 281 281 278 277 280 281 281 280 276 276 272 268 267 262 259 263 266 266 264 263 264 262 261 261 259 259 259 261 265 264 260 258 257 258 257 257 256 254 253 255 257 259 259 259 257 255 252 250 252
125 110 129 131 131 299 303 301 289 286 289 286 290 296 296 297 298 289 284 283 288 292 294 294 295 297 300 302 299 296 294 294 294 294 290 282 278 277 278 278 277 276 282 285 280 281 281 277 275 271 268 269 270 272 270 267 266 265 264 266 266 265 264 262 264 265 262 258 257 257 257 256 255 252 250 250 252 254 256 256 255 254 252 249 251
121 118 301 329 327 313 298 291 291 289 289 290 295 301 301 298 296 292 287 274 279 288 290 289 288 290 293 294 294 295 296 296 293 286 280 276 275 278 280 281 281 282 284 286 282 280 283 283 281 279 275 273 271 272 272 270 270 268 267 268 269 268 267 264 261 263 264 263 260 259 257 255 253 251 251 249 247 250 253 254 254 256 256 253 252
134 165 297 320 321 314 305 300 303 303 304 306 306 305 303 300 299 299 301 300 294 291 290 292 292 289 289 291 294 295 295 292 286 282 279 277 276 277 277 279 280 280 281 283 283 283 285 285 285 284 280 278 276 273 272 272 272 270 267 267 268 267 267 266 264 264 267 268 266 264 260 256 252 249 249 248 245 246 251 256 258 258 258 256 254
132 274 294 301 301 304 308 310 312 313 312 309 308 309 306 307 307 300 299 301 299 295 294 296 295 292 292 294 294 293 292 289 287 287 285 283 282 278 278 278 277 277 278 279 282 287 288 287 288 288 287 285 282 278 277 275 273 273 270 268 269 269 268 267 265 265 265 267 268 267 262 256 251 247 245 246 245 243 245 251 258 260 259 258 257
248 282 298 310 320 318 312 312 313 313 313 311 312 315 314 314 311 305 304 306 302 299 297 296 296 296 296 295 292 292 291 288 287 288 287 285 283 282 282 282 282 282 280 278 279 284 288 290 290 289 289 288 284 281 280 280 280 281 278 275 272 270 270 268 267 267 267 268 268 267 266 261 254 249 247 247 247 245 244 245 251 255 256 257 258
259 285 310 320 325 322 313 313 315 315 318 319 319 318 316 315 313 311 311 310 306 302 300 300 301 301 301 297 292 291 291 291 290 290 288 285 282 283 282 281 281 282 281 280 280 281 285 288 289 289 289 289 286 285 284 283 282 280 278 276 274 270 269 268 268 268 266 266 263 260 265 269 267 261 255 253 251 249 249 248 249 250 250 252 254
301 319 321 320 321 319 316 318 321 322 323 322 321 320 317 316 315 314 314 311 308 306 304 304 304 303 301 297 295 295 295 294 291 287 283 280 280 282 281 281 280 278 278 279 279 279 283 286 287 288 289 289 288 286 286 284 281 278 276 275 274 272 269 268 268 268 267 266 261 258 265 271 273 268 262 258 256 254 253 252 252 252 249 249 250
307 311 312 311 317 320 322 325 326 324 324 322 323 322 319 319 318 316 316 313 310 307 304 304 303 302 299 296 296 298 296 293 291 289 287 286 286 285 282 283 283 282 281 280 279 279 282 283 285 287 288 288 286 285 285 285 283 280 276 273 273 272 272 270 267 266 267 267 263 263 268 270 271 270 266 261 258 259 259 257 256 255 253 250 248
300 304 306 308 321 327 326 327 326 324 327 326 325 325 325 325 323 320 317 314 310 307 306 305 303 300 298 296 296 297 296 294 294 294 294 292 290 287 285 285 285 284 283 281 280 280 280 278 280 283 284 285 287 287 286 284 283 283 281 277 275 273 272 271 268 266 267 268 266 265 267 266 265 264 259 255 256 259 260 261 260 258 255 253 250
301 307 311 312 323 330 331 332 331 332 333 329 330 336 337 332 327 322 318 315 312 310 308 307 305 303 301 299 298 297 295 294 295 297 298 296 292 289 288 288 287 286 284 282 280 279 278 277 277 280 282 284 286 286 286 285 283 281 280 278 276 274 272 271 270 270 270 271 272 271 271 270 269 266 258 254 257 258 258 257 257 257 256 254 252
304 318 327 329 332 334 336 336 335 334 332 335 346 351 344 336 330 323 318 316 314 312 311 310 309 308 307 303 301 298 298 300 301 300 299 298 296 293 292 293 292 289 286 284 282 280 279 279 278 279 281 281 280 281 282 283 281 279 279 278 278 277 275 273 272 272 273 274 275 273 273 273 272 269 262 255 256 258 257 254 252 252 252 252 252
320 341 341 335 332 334 336 335 333 334 335 345 356 354 346 339 331 324 320 316 314 312 311 310 308 308 307 304 302 300 301 304 302 299 297 296 296 295 296 299 298 296 293 290 286 283 280 278 277 278 277 276 275 277 278 278 278 281 283 280 279 278 278 277 274 271 272 274 276 276 275 274 272 269 262 256 255 256 255 252 249 249 250 249 249
342 339 335 329 326 331 334 331 330 333 334 343 350 348 345 338 330 325 320 313 310 308 307 307 307 308 307 305 303 301 300 299 296 297 297 295 294 295 297 301 301 301 299 295 291 287 284 281 279 278 277 275 274 275 277 278 279 280 279 277 277 279 281 281 279 275 272 273 276 278 278 277 277 275 268 262 258 254 250 248 246 247 246 241 239
317 322 323 318 319 324 325 325 329 328 325 330 335 333 330 326 324 322 317 312 308 306 306 307 308 308 309 307 305 303 301 299 298 300 300 296 295 295 295 296 296 294 293 292 291 290 288 284 282 281 279 278 278 278 279 279 278 277 276 276 277 279 279 279 278 277 275 277 281 280 277 277 278 278 275 270 264 259 255 253 251 248 242 235 235
309 314 312 307 311 314 315 319 323 323 323 324 321 317 316 317 319 320 316 310 307 306 307 308 308 309 309 308 306 303 301 299 297 297 297 296 295 294 292 291 289 285 283 282 283 284 286 285 284 283 281 281 282 281 280 281 281 280 280 279 278 278 276 274 275 275 278 286 289 283 279 278 277 276 274 271 268 264 260 257 255 252 248 245 248
304 301 298 295 299 307 318 320 321 322 320 316 310 309 314 318 321 321 314 308 305 307 309 308 307 306 305 303 301 299 297 296 293 292 294 295 294 293 292 290 288 284 282 280 277 276 276 278 278 278 278 281 283 282 282 285 285 283 282 280 278 278 277 276 275 276 280 286 288 286 284 281 276 273 272 271 268 265 263 260 258 256 254 253 255
289 282 288 293 299 310 320 320 319 319 317 310 306 311 319 322 323 320 312 305 302 303 305 304 302 301 299 298 296 295 294 294 292 291 293 295 296 296 295 293 291 289 286 282 278 275 272 271 272 274 276 279 282 284 286 285 279 278 281 282 282 279 277 277 276 275 274 273 273 279 282 280 276 273 271 270 270 268 266 263 260 259 259 260 262
264 271 289 300 309 315 319 319 318 318 318 314 316 324 328 325 321 318 310 304 301 300 300 300 300 298 296 294 293 293 293 293 291 291 292 293 294 295 295 294 292 290 287 283 280 278 276 273 273 277 280 280 281 285 288 286 280 278 280 282 282 281 277 275 272 270 268 265 261 263 270 274 274 273 270 270 270 269 266 262 258 256 259 263 267
251 272 288 303 313 317 320 320 320 322 323 322 328 336 332 321 317 315 309 305 303 301 301 301 300 297 294 293 292 291 292 293 293 293 292 290 292 295 296 295 293 289 286 284 282 281 279 276 274 275 278 278 277 280 284 284 280 278 279 279 277 274 274 274 273 271 268 265 260 258 264 269 269 269 270 270 269 269 267 264 260 258 259 263 267
261 278 294 307 314 318 321 324 327 327 326 325 330 332 327 320 320 317 311 307 304 301 301 301 298 296 294 292 292 292 293 295 296 296 294 293 296 298 297 295 293 290 287 287 286 284 283 280 275 272 273 275 278 281 285 285 280 276 274 272 268 266 267 270 272 272 271 269 265 259 261 266 266 268 272 273 271 271 269 266 263 261 260 262 266
276 290 305 312 318 324 327 331 333 327 322 324 327 325 323 322 321 318 312 308 305 302 302 301 299 299 296 294 293 293 294 297 298 297 296 298 301 300 298 297 295 291 290 290 290 287 285 283 279 274 270 271 274 279 283 285 283 275 263 258 261 264 264 263 265 268 270 270 265 259 259 265 267 268 272 274 272 268 267 266 264 260 258 259 261
296 309 318 321 325 330 330 330 330 324 322 325 323 322 324 323 321 320 315 308 306 305 305 304 303 301 299 298 298 297 299 304 306 304 302 303 301 297 296 296 293 289 290 291 291 292 292 289 287 284 279 276 275 277 279 280 280 273 261 254 254 257 258 260 262 264 267 268 264 260 260 266 269 269 269 272 272 266 264 264 263 259 256 254 256
Height
843 843 843 842 842 842 841 841 840 840 839 840 839 839 838 837 837 837 837 837 836 836 836 837 837 838 839 840 841 841 841 841 841 841 841 841 842 843 844 845 847 848 850 850 851 853 854 855 856 857 859 860 860 861 862 863 864 864 865 866 867 868 869 870 870 871 872 872 873 874 874 875 875 876 876 877 877 877 877 878 878 878 878 878 878
843 842 842 842 842 841 840 840 839 838 838 838 838 838 837 837 836 836 836 836 836 836 835 836 836 837 838 839 840 840 841 841 841 840 840 841 841 842 843 844 846 847 848 850 851 852 853 854 855 856 857 858 859 860 861 862 863 863 864 866 866 867 868 869 869 870 870 871 872 872 873 874 874 875 875 875 876 876 876 877 877 877 877 877 877
842 842 842 841 841 840 839 838 838 837 837 837 836 837 836 836 836 836 836 835 836 835 835 836 836 837 837 838 838 839 840 840 840 840 840 840 841 841 841 842 844 846 847 848 850 851 852 853 854 855 856 857 858 859 860 860 861 862 864 865 866 866 867 868 868 869 869 870 870 871 871 872 872 873 873 874 874 874 875 875 875 876 876 876 876
842 842 841 841 840 839 838 837 837 837 837 836 835 836 835 835 835 835 835 834 834 835 835 835 835 836 836 836 836 837 838 839 839 839 839 840 840 841 840 841 843 844 846 847 848 850 851 851 852 854 855 856 857 858 858 859 860 861 862 864 864 865 866 866 867 867 868 868 869 869 870 870 871 871 872 872 872 873 873 873 873 874 874 874 874
842 841 841 840 839 839 837 836 837 836 836 835 834 834 833 834 834 834 834 834 834 833 834 834 835 835 835 835 835 836 837 837 837 837 838 839 839 840 840 840 841 842 844 845 846 848 849 850 851 852 853 854 855 856 856 857 859 860 861 862 863 863 864 865 865 866 866 867 867 868 868 869 869 870 870 870 870 871 871 871 871 872 872 872 872
841 840 840 840 839 838 837 837 836 836 835 834 833 833 832 832 833 833 833 833 833 832 832 833 833 833 834 834 834 835 835 835 835 836 837 838 838 839 839 840 840 841 841 842 844 845 846 848 849 850 851 852 852 853 854 856 857 859 860 860 861 862 862 863 863 864 864 865 865 866 866 867 867 868 868 868 868 868 869 869 869 869 870 870 870
839 839 838 838 838 837 837 836 836 835 834 832 832 831 831 831 831 832 832 832 832 831 831 831 831 831 832 832 833 833 833 833 834 835 835 836 837 838 838 838 839 839 840 841 842 842 843 845 846 847 848 849 850 851 852 854 855 856 858 858 859 860 860 861 861 862 862 863 863 864 864 865 865 865 865 866 866 866 866 867 867 867 868 868 868
837 837 837 837 837 837 836 836 835 835 834 833 832 831 831 831 830 831 831 830 830 830 830 829 829 830 830 830 831 831 831 832 832 833 834 834 835 836 837 837 838 838 838 839 840 840 841 842 843 844 846 847 848 849 851 852 853 854 855 856 857 857 858 858 859 859 860 860 861 861 862 862 863 863 863 863 864 864 864 864 865 865 865 865 866
836 836 836 836 836 836 835 835 834 834 833 833 832 832 831 830 830 830 830 829 829 829 828 828 828 828 829 829 829 829 829 830 830 831 831 832 833 834 835 836 837 837 837 838 838 839 839 839 841 842 844 845 846 848 849 850 851 852 853 854 854 855 855 856 856 857 857 858 858 859 859 860 860 860 861 861 861 862 862 862 862 863 863 863 863
835 835 835 835 835 835 835 834 833 832 832 832 832 831 831 830 829 829 829 829 828 828 827 827 827 827 827 827 827 828 828 828 828 828 829 830 831 832 834 834 835 836 836 836 837 837 837 838 839 840 841 842 844 845 846 847 848 849 850 851 852 852 853 853 854 854 855 855 855 856 856 857 857 858 858 858 859 859 859 859 860 860 860 861 861
834 835 834 834 834 834 834 833 832 831 831 831 831 831 830 829 828 828 828 828 827 827 826 826 826 826 825 826 826 826 826 826 826 826 827 828 829 831 832 833 834 834 835 835 835 836 836 836 837 838 839 839 841 842 843 844 845 846 847 848 849 849 850 851 851 852 852 852 853 853 854 854 855 855 855 855 856 856 856 857 857 857 858 858 858
834 834 834 833 833 833 833 832 831 830 830 830 830 830 829 828 827 827 827 826 826 826 825 825 825 824 824 824 824 824 824 824 824 825 826 826 828 829 830 831 832 832 833 833 834 834 834 835 835 836 837 837 837 839 840 841 842 843 844 845 846 846 847 848 848 849 849 850 850 851 851 851 852 852 852 853 853 853 853 854 854 854 855 855 855
833 833 832 832 832 832 832 831 830 829 829 829 829 829 828 828 827 827 827 826 826 825 824 824 824 823 823 823 823 823 823 823 824 824 825 825 826 827 828 829 829 830 831 831 832 832 832 833 833 834 834 835 835 835 836 837 838 839 840 841 842 843 844 844 845 846 846 847 847 848 848 848 849 849 849 850 850 850 850 851 851 851 852 852 852
831 831 831 831 831 831 831 830 829 828 828 827 828 828 827 827 827 826 826 826 825 824 824 824 823 822 822 822 822 823 823 822 823 824 824 824 825 826 826 827 828 828 829 829 829 830 830 831 831 831 832 833 833 833 833 834 834 835 836 837 838 839 840 841 842 842 843 843 844 844 845 845 845 846 846 846 847 847 847 848 848 848 848 849 849
830 830 830 830 830 830 830 829 829 828 827 827 828 828 827 826 826 826 825 825 824 824 823 823 823 822 821 821 821 821 822 821 822 823 822 823 823 824 825 825 826 826 826 827 827 827 828 828 829 829 829 830 830 830 830 831 831 831 832 834 834 835 836 837 838 839 839 840 840 841 841 842 842 842 843 843 843 844 844 844 844 845 845 846 846
830 830 830 830 830 829 829 829 828 827 826 827 828 828 827 826 825 825 824 824 823 823 823 823 822 822 820 819 817 818 821 819 819 821 820 821 822 822 823 823 824 824 824 824 824 824 825 825 826 826 827 827 827 828 828 828 829 829 829 830 831 832 833 834 834 835 836 836 837 837 838 838 839 839 839 840 840 840 840 841 841 841 842 842 843
829 830 830 830 829 829 828 828 828 827 827 828 828 828 827 826 825 824 824 823 823 823 823 822 821 820 819 819 819 821 821 817 818 820 819 819 820 820 821 821 821 821 821 821 822 822 822 823 823 824 824 824 825 825 825 825 826 826 826 826 827 828 829 830 831 832 832 833 833 833 834 834 835 835 836 836 836 837 837 837 838 838 838 839 839
829 829 830 830 829 828 827 828 828 828 827 828 828 828 828 826 825 825 824 823 823 822 821 821 821 820 819 819 820 821 820 817 818 820 819 818 819 819 819 819 819 819 818 819 819 820 820 820 821 821 821 822 822 822 822 822 822 823 823 822 823 824 825 826 827 828 829 829 829 830 830 830 831 832 832 832 833 833 833 834 834 835 835 836 836
829 829 829 829 828 827 827 827 828 828 827 827 828 827 827 826 825 824 824 823 823 822 820 820 820 819 818 818 818 818 819 818 818 818 819 818 817 817 817 817 817 816 816 816 816 817 818 817 818 818 819 819 819 819 819 819 819 819 819 819 819 820 821 822 823 824 824 825 825 826 826 827 827 827 828 828 829 829 830 830 831 831 832 833 834
828 828 829 829 828 827 827 827 827 828 827 827 827 827 826 826 825 825 824 824 823 822 820 819 818 818 818 817 817 817 818 818 818 817 817 817 816 816 816 815 815 814 813 814 814 815 815 814 814 815 815 815 816 816 816 816 816 816 816 816 816 816 817 818 819 819 820 821 821 822 822 823 823 823 824 824 825 826 826 827 828 828 829 830 831
829 828 828 829 828 828 828 827 827 827 827 827 827 827 826 826 826 825 825 824 823 822 820 819 817 817 817 816 816 817 817 817 818 817 815 816 815 814 814 814 812 811 811 812 812 812 812 812 811 812 812 812 812 813 813 813 813 813 812 812 813 813 814 814 815 815 816 817 817 818 818 819 819 820 820 821 822 822 823 824 825 826 827 828 829
830 829 828 828 828 828 828 828 828 827 827 827 827 827 826 826 825 825 825 824 823 821 820 819 818 817 816 816 816 816 816 816 816 816 815 815 813 811 812 811 811 810 809 810 810 810 810 809 809 809 809 810 810 810 810 809 809 809 810 810 810 810 810 811 811 812 813 813 813 814 814 815 815 816 817 818 819 819 820 821 822 824 825 826 827
829 829 828 828 828 828 828 828 828 828 827 827 826 826 826 825 825 825 825 824 823 822 821 820 819 818 817 816 815 814 814 814 814 815 814 814 813 810 809 809 809 808 807 808 808 808 808 807 807 806 806 807 808 808 807 807 807 807 807 807 807 807 807 807 807 808 809 809 810 810 811 811 812 813 814 815 815 816 817 819 820 821 822 824 826
828 828 828 828 828 828 828 828 828 828 828 827 827 827 826 826 825 825 824 824 823 822 821 820 819 818 817 815 815 813 813 813 812 813 813 812 812 810 806 807 807 805 805 805 805 805 805 805 804 804 804 805 805 805 804 804 804 804 804 804 804 804 804 804 804 804 805 805 806 806 807 808 808 809 810 811 812 813 814 815 816 818 820 821 822
826 826 827 828 828 828 828 828 828 828 828 828 827 827 827 826 825 824 823 823 823 822 821 820 819 819 817 816 814 813 813 812 812 812 812 811 811 809 806 805 805 803 802 802 802 802 802 801 802 801 801 802 802 802 801 802 801 801 801 801 801 801 801 801 801 801 802 802 802 803 803 804 805 806 807 808 808 808 810 811 812 814 817 818 819
825 825 826 826 827 827 828 828 828 828 828 828 828 827 827 826 825 825 824 823 823 822 821 820 820 819 818 816 815 814 813 812 813 812 811 811 810 808 806 805 804 801 800 800 800 799 799 799 799 799 799 799 799 799 799 799 799 798 799 798 798 798 798 798 798 798 798 799 799 800 800 801 802 802 804 804 804 805 806 808 809 811 813 814 815
825 826 826 826 826 827 827 827 828 828 828 828 827 827 827 826 825 825 824 824 823 822 821 820 820 819 818 817 816 814 813 812 812 811 811 811 810 808 807 807 807 803 800 798 798 797 797 797 797 797 797 797 797 797 797 797 796 796 796 796 795 795 794 794 795 795 795 795 796 796 797 798 799 800 801 801 800 801 802 803 805 806 808 808 806
825 826 826 826 826 827 827 827 828 828 828 828 827 827 827 826 825 825 824 823 823 822 821 820 819 819 818 817 816 815 813 812 812 811 811 811 811 810 808 808 808 807 803 800 798 796 795 795 794 794 795 795 795 795 795 795 794 794 794 794 793 792 792 791 792 792 792 792 793 793 794 795 796 797 798 797 797 798 798 799 801 801 802 801 798
825 826 826 827 827 827 827 827 827 828 827 827 827 826 827 825 824 824 823 822 822 822 821 820 819 818 817 816 816 814 813 813 812 811 811 811 811 810 808 806 807 807 806 804 799 795 794 794 793 793 794 794 794 794 794 793 792 792 792 791 791 790 789 789 789 789 789 790 790 790 791 792 792 794 794 793 793 794 795 796 796 796 796 795 795
825 826 827 827 827 827 827 827 827 827 827 827 826 826 826 825 824 823 822 822 822 821 821 820 819 818 817 816 816 814 813 812 812 811 811 811 810 808 807 806 805 805 804 804 801 796 795 794 792 792 793 793 793 792 791 791 790 790 790 789 788 788 787 787 787 786 786 787 787 788 788 789 789 790 790 791 790 791 792 791 791 791 791 791 792
827 827 827 827 827 827 827 827 827 827 826 826 826 826 825 824 823 822 821 821 821 821 820 819 818 818 817 817 816 814 813 812 812 811 810 809 808 807 806 805 805 804 803 803 802 798 796 794 792 792 792 791 791 790 789 789 788 787 787 787 786 786 785 784 784 784 784 784 784 785 786 786 787 787 787 788 787 787 787 787 787 787 787 788 789
827 827 828 827 827 827 827 826 826 826 826 825 825 825 824 824 823 821 820 820 820 820 819 818 818 818 816 816 815 814 813 812 810 809 807 806 805 805 804 804 803 803 803 803 801 798 797 795 793 791 790 789 789 788 787 786 786 785 785 784 784 783 782 782 781 781 781 781 782 783 783 783 784 784 784 785 784 784 783 783 784 784 784 785 785
827 827 827 827 827 827 826 826 826 826 825 825 825 824 823 823 822 821 820 820 820 819 818 818 817 816 815 815 814 813 812 811 809 807 805 804 803 802 802 802 801 801 801 801 800 797 796 795 793 791 790 788 787 786 785 784 783 783 782 782 781 780 780 779 779 778 778 779 780 780 781 781 781 781 782 782 781 782 781 780 780 780 781 781 781
827 827 827 826 827 827 826 826 826 825 825 825 824 823 823 822 821 821 820 819 819 818 817 816 815 815 814 814 813 812 810 809 808 806 804 803 802 801 801 800 799 799 798 798 798 797 795 794 793 791 789 788 786 785 784 783 782 781 781 780 779 778 777 776 776 776 776 776 777 778 778 779 779 779 779 779 779 779 778 778 778 778 778 778 778
826 826 827 826 826 826 826 826 825 825 824 824 824 823 822 822 821 820 819 818 818 817 816 815 814 814 813 813 812 810 809 808 807 806 804 803 801 800 800 799 798 798 797 797 796 796 794 793 792 790 788 787 785 783 783 782 781 780 779 778 777 776 775 774 773 773 773 773 774 775 775 776 776 777 777 777 776 776 776 775 775 775 776 776 775
825 826 826 826 826 826 825 825 824 824 824 823 823 822 821 821 820 820 819 818 817 816 815 814 813 813 812 811 810 809 808 807 806 805 803 801 800 799 798 798 797 796 795 795 794 794 793 791 790 789 787 786 784 783 782 780 779 778 777 775 774 773 772 772 771 770 770 770 770 772 772 773 773 774 774 774 774 774 773 773 773 773 773 773 773
825 825 825 825 825 825 825 824 824 824 823 823 822 822 821 820 820 819 818 818 817 816 815 814 813 813 812 811 809 808 808 806 805 803 802 800 799 798 797 796 796 795 793 793 793 792 792 790 789 787 786 784 782 781 780 779 777 775 774 773 772 771 770 769 768 768 768 767 767 768 769 769 770 770 770 771 771 771 770 770 770 770 770 770 770
825 825 825 825 825 825 824 824 824 823 823 822 822 821 821 820 820 819 818 817 817 816 815 814 813 812 811 810 809 808 807 805 804 803 801 800 799 798 797 796 795 794 793 792 791 791 790 789 787 785 784 782 780 779 778 777 776 774 772 770 769 768 768 767 766 765 765 765 764 765 765 765 766 767 767 767 768 768 768 767 767 767 767 767 767
825 825 825 825 825 824 824 823 823 823 822 822 821 821 820 820 819 818 818 817 816 815 814 813 812 811 810 809 808 807 806 805 804 803 801 800 799 798 797 795 794 793 792 791 790 789 788 786 784 783 781 780 779 777 776 776 774 773 771 769 767 766 765 764 764 763 763 763 762 762 762 762 763 763 764 764 764 764 764 764 764 764 764 764 764
825 825 825 825 824 824 823 823 822 822 822 821 821 821 820 820 819 818 817 816 815 814 813 812 811 810 809 808 807 806 805 804 803 802 801 800 799 797 796 795 794 792 791 789 788 786 785 783 782 780 779 778 777 775 774 773 772 770 769 767 765 764 763 762 762 762 761 761 760 760 759 759 759 759 759 760 760 760 761 761 761 761 761 761 761
825 825 825 824 824 823 823 822 822 822 821 820 821 821 820 819 819 817 816 815 814 813 812 811 810 809 808 807 806 805 804 803 802 801 800 799 798 797 795 794 793 791 789 788 786 784 783 781 779 778 777 776 774 773 772 771 769 768 767 766 764 763 762 761 760 760 759 759 758 757 757 756 756 756 756 756 756 757 757 757 757 757 757 758 758
824 824 824 824 823 823 822 822 822 821 820 820 820 820 820 819 818 817 816 814 813 812 811 810 808 807 807 806 804 803 802 801 800 799 799 798 797 795 794 793 792 790 788 787 785 783 782 779 778 776 774 773 772 771 770 768 768 766 765 764 763 761 761 759 758 757 757 757 756 755 755 755 755 754 754 754 754 754 754 754 754 754 754 755 755
824 823 823 823 822 822 822 822 821 820 819 819 819 819 819 818 817 816 815 813 812 811 809 808 807 806 805 804 802 801 800 799 799 798 797 796 794 794 793 791 790 789 787 786 784 782 780 778 776 775 773 771 770 769 768 767 766 765 763 763 761 760 760 758 757 756 755 756 755 754 753 753 753 753 752 752 752 751 751 751 751 751 752 752 752
824 823 822 822 822 822 822 821 821 819 818 818 818 818 818 817 816 815 814 812 811 809 808 807 806 804 803 802 801 800 799 798 797 796 794 793 792 792 791 789 788 787 786 784 783 781 779 777 774 773 771 769 768 767 767 765 764 763 762 761 760 759 758 757 755 754 754 755 754 752 751 751 751 751 750 749 749 749 749 749 749 749 749 749 750
823 822 822 822 821 821 821 820 820 819 818 817 817 817 816 816 815 814 813 811 809 808 807 805 805 803 802 801 800 798 797 796 795 794 792 791 790 789 788 786 785 784 782 781 780 779 777 775 773 770 769 768 766 765 765 764 763 762 760 759 759 758 756 755 754 753 753 753 753 751 749 749 749 748 747 747 747 746 746 746 746 746 746 747 747
821 821 821 821 821 821 820 820 819 818 817 816 816 816 816 815 814 813 811 810 808 807 805 804 803 802 800 799 798 796 795 793 792 791 790 789 788 786 785 783 781 780 779 777 776 775 774 772 770 768 767 766 765 763 763 763 762 760 758 757 757 756 755 753 752 752 751 751 752 750 747 746 747 746 744 744 744 743 743 743 744 744 744 744 744
821 821 821 820 820 820 819 819 818 817 816 815 815 815 814 813 813 811 810 808 807 805 804 802 801 800 798 797 795 794 792 791 790 789 787 786 785 783 782 780 778 777 775 774 773 771 770 769 767 766 765 764 763 762 761 760 759 758 757 756 755 755 753 751 750 749 748 748 749 748 745 744 744 743 741 741 741 741 740 740 740 740 740 740 741
820 820 820 820 819 819 818 818 817 816 815 814 814 814 813 812 811 810 809 807 805 803 802 800 799 797 796 795 793 791 790 788 787 786 784 783 782 781 779 777 775 773 771 770 769 768 767 765 764 763 762 761 760 759 759 758 757 756 756 755 754 753 751 749 747 746 745 745 745 746 743 741 741 740 738 738 738 737 737 737 737 737 737 737 737
819 819 819 819 818 818 817 817 816 816 815 814 813 813 812 811 810 809 808 806 804 802 800 798 797 795 793 792 790 789 787 785 784 783 782 780 779 778 776 774 772 769 767 766 765 764 763 762 760 760 759 758 757 756 756 755 754 755 755 753 750 750 748 746 744 743 742 741 742 743 741 739 739 738 736 736 735 734 734 734 734 734 734 734 734
818 819 818 818 818 817 816 816 816 815 815 813 813 812 811 810 809 808 806 804 802 800 798 796 795 792 791 789 788 786 784 782 781 780 779 778 777 776 774 772 769 766 764 764 762 760 759 758 757 756 755 754 754 753 752 751 751 752 752 749 747 747 745 743 742 740 739 738 739 740 738 736 736 736 735 733 732 731 731 730 730 731 731 731 731
818 818 817 817 817 816 816 816 815 814 814 813 812 811 810 809 808 806 805 803 801 798 796 794 792 790 788 786 784 783 781 779 778 777 776 776 775 774 772 770 767 764 762 762 760 758 757 755 754 753 751 750 750 750 749 748 748 748 747 745 745 744 742 740 739 738 737 735 735 737 736 735 734 734 733 732 729 727 727 727 727 727 727 728 728